カタログに戻る

STARLINK-5388

運用中通信VLEO
NORAD 54844·PAYLOAD·🇺🇸 United States

打ち上げ Dec 28, 2022 から Cape Canaveral Space Force Station

Loading…

次のパス (今後24時間)

TLE

最新Source: CelesTrak SupGP

元期: Sep 14, 2026, 22:05 UTC

1 54844C 22177AA  26257.92062500 -.00019891  00000+0 -72058-3 0  2571
2 54844  43.0010 147.0589 0001628 266.8615 225.7528 15.27582156    14

AllMySatでSTARLINK-5388をリアルタイム追跡

Download on the App Store